Back to catalog

METEOR 2-11 DEB

AlivePO
NORAD 40707·DEBRIS·🇷🇺 Russia

Launched Jul 5, 1984 from Plesetsk Cosmodrome

Loading…

Next Passes (next 24 hours)

TLE

FreshSource: Space-Track

Epoch: Sep 13, 2026, 19:40 UTC

1 40707U 84072J   26256.81957817  .00001116  00000-0  77630-3 0  9991
2 40707  82.5199 293.9071 0013171 136.9394 223.2807 13.97944708116568

Track METEOR 2-11 DEB in real time with AllMySat

Download on the App Store